Weather History for Port Hope, MI

Change the Weather History Date:

Thursday, January 16, 2014

  Actual Average Record
Temperature  
Mean Temperature 22 °F -  
Max Temperature 26 °F 25 °F 36 °F (2012)
Min Temperature 19 °F 15 °F -2 °F (2009)
Degree Days  
Heating Degree Days 42    
Moisture  
Dew Point 16 °F    
Average Humidity 78    
Maximum Humidity 88    
Minimum Humidity 65    
Precipitation  
Precipitation 0.06 in - - ()
Sea Level Pressure  
Sea Level Pressure 29.75 in    
Wind  
Wind Speed 7 mph (South)    
Max Wind Speed 12 mph    
Max Gust Speed 20 mph    
Averages and records for this station are not official NWS values.
T = Trace of Precipitation, MM = Missing Value Source: NWS Daily Summary

Daily Weather History Graph

Daily Weather History Graph

Search for Another Location

Airport:

Trip Planner

Search our weather history database for the weather conditions in past years. The results will help you decide how hot, cold, wet, or windy it might be!

Date:

Astronomy

Jan. 16, 2014 Rise Set
Actual Time 8:02 AM EST 5:20 PM EST
Civil Twilight 7:30 AM EST 5:52 PM EST
Nautical Twilight 6:54 AM EST 6:27 PM EST
Astronomical Twilight 6:20 AM EST 7:02 PM EST
Moon 6:14 PM EST (1/16) 7:52 AM EST (1/16)
Length of Visible Light 10h 22m
Length of Day
9h 18m
Full, 100% of the Moon is Illuminated
Jan 16
Full
Jan 24
Last Quarter
Jan 30
New
Feb 6
First Quarter
Feb 14
Full

Hourly Weather History & Observations

Time (EST) Temp. Windchill Dew Point Humidity Pressure Visibility Wind Dir Wind Speed Gust Speed Precip Events Conditions
12:51 AM 19.0 °F 12.3 °F 10.0 °F 68% 29.91 in - Variable 4.6 mph - N/A   Unknown
1:51 AM 19.9 °F 13.4 °F 10.0 °F 65% 29.89 in - Variable 4.6 mph - N/A   Unknown
2:51 AM 19.9 °F 13.4 °F 10.9 °F 68% 29.89 in - SSW 4.6 mph - N/A   Unknown
3:51 AM 19.0 °F 10.0 °F 10.0 °F 68% 29.86 in - SW 6.9 mph 16.1 mph N/A   Unknown
4:51 AM 19.0 °F 10.0 °F 10.0 °F 68% 29.84 in - SSW 6.9 mph - N/A   Unknown
5:51 AM 19.9 °F 12.1 °F 10.0 °F 65% 29.83 in - South 5.8 mph - N/A   Unknown
6:51 AM 19.0 °F 11.1 °F 10.0 °F 68% 29.81 in - Variable 5.8 mph 16.1 mph N/A   Unknown
7:51 AM 19.0 °F 9.0 °F 10.9 °F 71% 29.78 in - South 8.1 mph - N/A   Unknown
8:51 AM 19.9 °F 10.1 °F 12.0 °F 71% 29.77 in - South 8.1 mph - N/A   Unknown
9:51 AM 19.9 °F 7.9 °F 14.0 °F 78% 29.77 in - South 11.5 mph 18.4 mph N/A   Unknown
10:51 AM 19.9 °F 10.1 °F 16.0 °F 85% 29.77 in - South 8.1 mph 19.6 mph N/A   Unknown
11:51 AM 21.0 °F 12.4 °F 17.1 °F 85% 29.74 in - South 6.9 mph 18.4 mph 0.01 in   Unknown
12:51 PM 21.9 °F 11.7 °F 16.0 °F 78% 29.72 in - South 9.2 mph 18.4 mph N/A   Unknown
1:51 PM 21.9 °F 11.0 °F 17.1 °F 82% 29.70 in - SSE 10.4 mph 18.4 mph N/A   Unknown
2:51 PM 23.0 °F 14.7 °F 18.0 °F 81% 29.70 in - South 6.9 mph - N/A   Unknown
3:51 PM 23.0 °F 13.1 °F 19.0 °F 85% 29.69 in - SSE 9.2 mph 16.1 mph 0.01 in   Unknown
4:51 PM 24.1 °F 15.2 °F 19.9 °F 84% 29.69 in - SSE 8.1 mph - 0.01 in   Unknown
5:51 PM 24.1 °F 16.0 °F 19.9 °F 84% 29.69 in - South 6.9 mph - 0.01 in   Unknown
6:51 PM 24.1 °F 14.4 °F 19.9 °F 84% 29.69 in - South 9.2 mph 17.3 mph N/A   Unknown
7:51 PM 25.0 °F 17.1 °F 21.0 °F 85% 29.69 in - Variable 6.9 mph - N/A   Unknown
8:51 PM 26.1 °F 17.6 °F 21.9 °F 84% 29.68 in - South 8.1 mph - 0.01 in   Unknown
9:51 PM 26.1 °F 17.6 °F 21.9 °F 84% 29.68 in - SSE 8.1 mph - N/A   Unknown
10:51 PM 26.1 °F 18.4 °F 23.0 °F 88% 29.67 in - SSE 6.9 mph - N/A   Unknown
11:51 PM 26.1 °F 18.4 °F 23.0 °F 88% 29.65 in - SSE 6.9 mph - 0.01 in   Unknown